COSMOS 2251 DEB, 37518

Orbit data source: Space-Track

COSMOS 2251 DEB, 37518 is space debris in LEO originally from a launch on Wed, 16 Jun 1993 UTC launched from the Plesetsk Missile And Space Complex (PKMTR). The debris from Iridium 33, an American commercial communications satellite, has been tracked extensively since its accidental collision with the defunct Russian satellite Cosmos 2251 in 2009. This event, occurring at high speed in low Earth orbit (LEO), generated thousands of pieces of space debris, significantly increasing the risk of further collisions. The Iridium 33 debris cloud has impacted space traffic management and orbital debris mitigation strategies, making it a subject of ongoing study in space situational awareness.

Loading next visibility...
Identifier
37518, 1993-036BMX
Orbit
LEO
Country
Flag of CISCIS
Related business
Manufacturer
Unknown
Mission
Spacecraft
Bus & Motor
Unknown
Mass
Unknown
Launch date (UTC)
1993-06-16 (33 years ago)
Launch vehicle
Unknown
Launch site
Plesetsk Missile And Space Complex (PKMTR)
Object type
Payload
Rocket body
Debris
Shape & HBR
Unknown shape, 0.1 m
Radar Cross Section
Small (<0.1 m²)

Expand to show TLE details & history
Last TLE update: 4 days ago

TLE from 4 days ago
0 COSMOS 2251 DEB
1 37518U 93036BMX 26203.70453293  .00121684  00000-0  35819-2 0  9991
2 37518  73.9646 199.3722 0018760 272.4303  87.4754 15.34337202692818
Epoch: 2026-07-22T16:54Z
TLE epoch observation values (Epoch: 2026-07-22T16:54:31.645Z)
Latitude
0.00003°
Longitude
5.28431°
Altitude
465.073 km
Speed
7.634 km/s
True Right ascension
13h 17m 29s
True Declination
0° 00' 00"
Sunlit
Object was in daylight at epoch
Visualization orbit readout
Latitude
Unknown
Longitude
Unknown
Altitude
Unknown
Speed
Unknown
Apparent Right ascension
Unknown
Apparent Declination
Unknown
Sunlit
N/A
Visualization observer readout
Local Sidereal Time
23:10:42
Azimuth
Unknown
Elevation
Unknown
Doppler factor
Unknown
Orbital elements
Apogee altitude
473.242 km
Perigee altitude
447.584 km
Semi-major axis
6,838.55 km
Eccentricity
0.00188
Inclination
73.9646°
RAAN
199.3722°
Arg. of periapsis
272.4303°
True anomaly
87.69019°
Mean anomaly
87.4754°
Eccentric anomaly
87.58279°
Mean motion
3.83793 °/min
Orbital period
93.8 mins
BSTAR
0.0035819
Loading maneuver chart data...
Computing Atmospheric mass density...

Documentation

Showing up to 5 results
|